TimeEST,TemperatureF,Dew PointF,Humidity,Sea Level PressureIn,VisibilityMPH,Wind Direction,Wind SpeedMPH,Gust SpeedMPH,PrecipitationIn,Events,Conditions,WindDirDegrees,DateUTC
12:15 AM,49.1,32.0,52,29.97,10.0,NW,11.5,17.3,N/A,,Clear,320,2013-11-19 05:15:00
12:35 AM,48.2,32.0,54,29.97,10.0,NW,9.2,-,N/A,,Clear,310,2013-11-19 05:35:00
12:55 AM,47.8,32.0,54,29.97,10.0,NW,10.4,17.3,N/A,,Clear,310,2013-11-19 05:55:00
1:15 AM,47.3,32.0,55,29.97,10.0,NW,8.1,-,N/A,,Clear,310,2013-11-19 06:15:00
1:35 AM,46.0,32.0,58,29.98,10.0,WNW,8.1,-,N/A,,Clear,300,2013-11-19 06:35:00
1:55 AM,46.4,32.0,57,29.98,10.0,WNW,10.4,-,N/A,,Clear,290,2013-11-19 06:55:00
2:15 AM,46.9,31.6,55,29.98,10.0,NW,10.4,16.1,N/A,,Clear,310,2013-11-19 07:15:00
2:35 AM,44.8,31.8,60,29.98,10.0,NW,6.9,-,N/A,,Clear,310,2013-11-19 07:35:00
2:55 AM,40.6,31.6,70,29.99,10.0,NW,6.9,-,N/A,,Clear,320,2013-11-19 07:55:00
3:15 AM,42.8,32.0,66,30.00,10.0,NW,8.1,-,N/A,,Clear,320,2013-11-19 08:15:00
3:35 AM,42.3,32.0,67,30.00,10.0,WNW,8.1,-,N/A,,Scattered Clouds,300,2013-11-19 08:35:00
3:55 AM,40.3,32.0,72,30.01,10.0,North,4.6,-,N/A,,Clear,350,2013-11-19 08:55:00
4:15 AM,42.8,32.2,66,30.03,10.0,NNW,6.9,-,N/A,,Clear,330,2013-11-19 09:15:00
4:35 AM,43.5,32.0,64,30.04,10.0,NW,10.4,-,N/A,,Clear,320,2013-11-19 09:35:00
4:55 AM,43.2,31.6,64,30.05,10.0,North,10.4,-,N/A,,Clear,350,2013-11-19 09:55:00
5:15 AM,43.0,30.7,62,30.05,10.0,NW,17.3,-,N/A,,Clear,320,2013-11-19 10:15:00
5:35 AM,42.1,30.9,65,30.07,10.0,NW,5.8,16.1,N/A,,Clear,320,2013-11-19 10:35:00
5:55 AM,40.5,30.7,68,30.08,10.0,ESE,4.6,-,N/A,,Scattered Clouds,120,2013-11-19 10:55:00
6:15 AM,40.1,31.8,72,30.09,10.0,Calm,Calm,-,N/A,,Mostly Cloudy,0,2013-11-19 11:15:00
6:35 AM,41.9,31.8,67,30.10,10.0,NNW,12.7,-,N/A,,Overcast,340,2013-11-19 11:35:00
6:55 AM,41.9,31.3,66,30.12,10.0,NNW,11.5,-,N/A,,Scattered Clouds,340,2013-11-19 11:55:00
7:15 AM,42.3,31.5,66,30.12,10.0,NW,11.5,-,N/A,,Scattered Clouds,320,2013-11-19 12:15:00
7:35 AM,42.4,31.8,66,30.13,10.0,NNW,5.8,-,N/A,,Mostly Cloudy,330,2013-11-19 12:35:00
7:55 AM,43.0,31.6,64,30.14,10.0,NNW,13.8,17.3,N/A,,Scattered Clouds,330,2013-11-19 12:55:00
8:15 AM,43.5,30.9,61,30.16,10.0,North,15.0,21.9,N/A,,Mostly Cloudy,360,2013-11-19 13:15:00
8:35 AM,44.1,31.1,60,30.18,10.0,NNW,10.4,16.1,N/A,,Overcast,330,2013-11-19 13:35:00
8:55 AM,43.7,30.9,61,30.18,10.0,North,16.1,23.0,N/A,,Overcast,350,2013-11-19 13:55:00
9:15 AM,45.0,31.8,60,30.19,10.0,NW,13.8,21.9,N/A,,Overcast,320,2013-11-19 14:15:00
9:35 AM,45.5,31.5,58,30.20,10.0,NW,11.5,18.4,N/A,,Overcast,310,2013-11-19 14:35:00
9:55 AM,44.6,31.8,61,30.21,10.0,NW,12.7,18.4,N/A,,Mostly Cloudy,320,2013-11-19 14:55:00
10:15 AM,47.3,32.0,55,30.21,10.0,WNW,17.3,21.9,N/A,,Scattered Clouds,300,2013-11-19 15:15:00
10:35 AM,46.4,31.3,56,30.22,10.0,WNW,13.8,23.0,N/A,,Scattered Clouds,300,2013-11-19 15:35:00
10:55 AM,47.7,32.0,55,30.22,10.0,NNW,15.0,21.9,N/A,,Scattered Clouds,330,2013-11-19 15:55:00
11:15 AM,47.7,31.8,54,30.22,10.0,NW,13.8,24.2,N/A,,Scattered Clouds,320,2013-11-19 16:15:00
11:35 AM,47.7,32.0,55,30.21,10.0,NNW,19.6,23.0,N/A,,Scattered Clouds,340,2013-11-19 16:35:00
11:55 AM,48.2,32.2,54,30.20,10.0,NW,13.8,17.3,N/A,,Clear,320,2013-11-19 16:55:00
12:15 PM,48.4,32.0,53,30.21,10.0,NNW,12.7,20.7,N/A,,Scattered Clouds,330,2013-11-19 17:15:00
12:35 PM,48.6,32.5,54,30.20,10.0,NNW,13.8,21.9,N/A,,Scattered Clouds,330,2013-11-19 17:35:00
12:55 PM,48.9,32.2,52,30.20,10.0,NNW,15.0,21.9,N/A,,Scattered Clouds,340,2013-11-19 17:55:00
1:15 PM,48.4,32.2,54,30.19,10.0,North,12.7,16.1,N/A,,Clear,10,2013-11-19 18:15:00
1:35 PM,49.1,32.4,53,30.19,10.0,NNW,16.1,24.2,N/A,,Clear,340,2013-11-19 18:35:00
1:55 PM,49.1,32.5,53,30.19,10.0,North,20.7,24.2,N/A,,Clear,350,2013-11-19 18:55:00
2:15 PM,48.4,32.2,54,30.19,10.0,NNW,15.0,24.2,N/A,,Clear,330,2013-11-19 19:15:00
2:35 PM,49.1,32.4,53,30.19,10.0,NNW,12.7,18.4,N/A,,Clear,330,2013-11-19 19:35:00
2:55 PM,48.7,32.0,52,30.19,10.0,North,13.8,21.9,N/A,,Clear,350,2013-11-19 19:55:00
3:15 PM,48.2,32.0,54,30.20,10.0,North,11.5,-,N/A,,Clear,350,2013-11-19 20:15:00
3:35 PM,47.8,32.0,54,30.21,10.0,North,15.0,-,N/A,,Clear,350,2013-11-19 20:35:00
3:55 PM,47.3,31.6,55,30.21,10.0,NNW,11.5,18.4,N/A,,Clear,330,2013-11-19 20:55:00
4:15 PM,46.6,31.5,56,30.22,10.0,NNW,9.2,-,N/A,,Clear,340,2013-11-19 21:15:00
4:35 PM,45.5,31.5,58,30.23,10.0,NNW,9.2,-,N/A,,Clear,340,2013-11-19 21:35:00
4:55 PM,43.7,31.3,62,30.23,10.0,NNW,8.1,-,N/A,,Clear,340,2013-11-19 21:55:00
5:15 PM,42.3,31.1,65,30.24,10.0,NNW,9.2,-,N/A,,Clear,330,2013-11-19 22:15:00
5:35 PM,41.2,31.3,68,30.25,10.0,NNW,8.1,-,N/A,,Clear,330,2013-11-19 22:35:00
5:55 PM,40.5,31.3,70,30.26,10.0,NNW,10.4,-,N/A,,Clear,330,2013-11-19 22:55:00
6:15 PM,40.8,31.1,68,30.28,10.0,NNW,8.1,-,N/A,,Clear,330,2013-11-19 23:15:00
6:35 PM,37.2,30.9,78,30.28,10.0,Calm,Calm,-,N/A,,Clear,0,2013-11-19 23:35:00
6:55 PM,38.7,30.9,74,30.28,10.0,North,9.2,-,N/A,,Clear,350,2013-11-19 23:55:00
7:15 PM,40.1,30.9,70,30.29,10.0,North,8.1,-,N/A,,Clear,350,2013-11-20 00:15:00
7:35 PM,38.7,30.6,73,30.30,10.0,North,4.6,-,N/A,,Clear,360,2013-11-20 00:35:00
7:55 PM,37.6,30.2,75,30.31,10.0,NNW,6.9,-,N/A,,Clear,340,2013-11-20 00:55:00
8:15 PM,36.1,30.2,79,30.32,10.0,NNW,5.8,-,N/A,,Clear,330,2013-11-20 01:15:00
8:35 PM,35.8,30.4,81,30.33,10.0,NNW,5.8,-,N/A,,Clear,340,2013-11-20 01:35:00
8:55 PM,35.8,30.2,80,30.34,10.0,NNW,3.5,-,N/A,,Clear,340,2013-11-20 01:55:00
9:15 PM,34.5,30.7,86,30.34,10.0,North,3.5,-,N/A,,Clear,350,2013-11-20 02:15:00
9:35 PM,36.3,30.7,80,30.35,10.0,NNW,4.6,-,N/A,,Clear,330,2013-11-20 02:35:00
9:55 PM,37.0,30.7,78,30.35,10.0,NNW,6.9,-,N/A,,Clear,330,2013-11-20 02:55:00
10:15 PM,38.5,30.7,74,30.35,10.0,North,8.1,-,N/A,,Clear,350,2013-11-20 03:15:00
10:35 PM,38.8,30.9,73,30.35,10.0,North,6.9,-,N/A,,Clear,350,2013-11-20 03:35:00
10:55 PM,39.2,30.6,71,30.35,10.0,North,8.1,-,N/A,,Clear,350,2013-11-20 03:55:00
11:15 PM,38.5,30.4,73,30.36,10.0,North,6.9,-,N/A,,Clear,350,2013-11-20 04:15:00
11:35 PM,38.1,30.2,73,30.37,10.0,North,6.9,-,N/A,,Clear,350,2013-11-20 04:35:00
11:55 PM,36.7,29.8,76,30.37,10.0,North,5.8,-,N/A,,Clear,350,2013-11-20 04:55:00